Weather History for Perry, FL

Change the Weather History Date:

Tuesday, September 10, 2013

  Actual Average (KCTY) Record (KCTY)
Temperature  
Mean Temperature 80 °F 80 °F  
Max Temperature 91 °F 90 °F 93 °F (2008)
Min Temperature 68 °F 70 °F 64 °F (2005)
Degree Days  
Heating Degree Days 0 0  
Month to date heating degree days 0  
Since 1 July heating degree days 0  
Cooling Degree Days 14 15  
Month to date cooling degree days 150  
Year to date cooling degree days 2088  
Growing Degree Days 30 (Base 50)    
Moisture  
Dew Point 66 °F    
Average Humidity 68    
Maximum Humidity 94    
Minimum Humidity 40    
Precipitation  
Precipitation 0.00 in 0.18 in 1.26 in (2007)
Month to date precipitation 1.82  
Year to date precipitation 37.19  
Sea Level Pressure  
Sea Level Pressure 30.10 in    
Wind  
Wind Speed 3 mph (ENE)    
Max Wind Speed 10 mph    
Max Gust Speed 16 mph    
Visibility 10 miles    
Events      
T = Trace of Precipitation, MM = Missing Value Source: NWS Daily Summary

Daily Weather History Graph

Daily Weather History Graph

Search for Another Location

Airport:

Trip Planner

Search our weather history database for the weather conditions in past years. The results will help you decide how hot, cold, wet, or windy it might be!

Date:

Astronomy

Sep. 10, 2013 Rise Set
Actual Time 7:16 AM EDT 7:45 PM EDT
Civil Twilight 6:52 AM EDT 8:09 PM EDT
Nautical Twilight 6:23 AM EDT 8:37 PM EDT
Astronomical Twilight 5:55 AM EDT 9:06 PM EDT
Moon 12:15 PM EDT (9/10) 11:14 PM EDT (9/10)
Length of Visible Light 13h 17m
Length of Day
12h 29m
Waxing Crescent, 28% of the Moon is Illuminated
Sep 10
Waxing Crescent
Sep 12
First Quarter
Sep 19
Full
Sep 26
Last Quarter
Oct 4
New

Hourly Weather History & Observations

Time (EDT) Temp. Heat Index Dew Point Humidity Pressure Visibility Wind Dir Wind Speed Gust Speed Precip Events Conditions
12:15 AM 75.2 °F - 66.2 °F 73% 30.08 in 10.0 mi East 4.6 mph - N/A   Clear
12:35 AM 75.2 °F - 66.2 °F 73% 30.08 in 10.0 mi Calm Calm - N/A   Clear
12:53 AM 75.0 °F - 66.9 °F 76% 30.07 in - Calm Calm - N/A   Unknown
12:55 AM 73.4 °F - 66.2 °F 78% 30.08 in 10.0 mi Calm Calm - N/A   Clear
1:15 AM 71.6 °F - 66.2 °F 83% 30.08 in 10.0 mi Calm Calm - N/A   Clear
1:35 AM 71.6 °F - 66.2 °F 83% 30.08 in 10.0 mi Calm Calm - N/A   Clear
1:53 AM 73.9 °F - 66.9 °F 79% 30.07 in - ENE 3.5 mph - N/A   Unknown
1:55 AM 71.6 °F - 66.2 °F 83% 30.08 in 10.0 mi Calm Calm - N/A   Clear
2:15 AM 71.6 °F - 66.2 °F 83% 30.08 in 10.0 mi Calm Calm - N/A   Clear
2:35 AM 71.6 °F - 66.2 °F 83% 30.08 in 10.0 mi Calm Calm - N/A   Clear
2:53 AM 72.0 °F - 66.9 °F 84% 30.07 in - Calm Calm - N/A   Unknown
2:55 AM 69.8 °F - 66.2 °F 88% 30.08 in 10.0 mi Calm Calm - N/A   Clear
3:15 AM 69.8 °F - 66.2 °F 88% 30.08 in 10.0 mi ENE 3.5 mph - N/A   Clear
3:35 AM 69.8 °F - 66.2 °F 88% 30.07 in 10.0 mi Calm Calm - N/A   Clear
3:53 AM 71.1 °F - 66.0 °F 84% 30.06 in - Calm Calm - N/A   Unknown
3:55 AM 69.8 °F - 66.2 °F 88% 30.07 in 10.0 mi Calm Calm - N/A   Clear
4:15 AM 69.8 °F - 66.2 °F 88% 30.07 in 10.0 mi NE 3.5 mph - N/A   Clear
4:35 AM 69.8 °F - 64.4 °F 83% 30.07 in 10.0 mi NE 4.6 mph - N/A   Clear
4:53 AM 71.1 °F - 66.0 °F 84% 30.06 in - NE 3.5 mph - N/A   Unknown
4:55 AM 69.8 °F - 66.2 °F 88% 30.08 in 10.0 mi NE 3.5 mph - N/A   Clear
5:15 AM 69.8 °F - 66.2 °F 88% 30.08 in 10.0 mi Calm Calm - N/A   Clear
5:35 AM 69.8 °F - 66.2 °F 88% 30.08 in 10.0 mi Calm Calm - N/A   Clear
5:53 AM 70.0 °F - 66.0 °F 87% 30.07 in - NNE 4.6 mph - N/A   Unknown
5:55 AM 68.0 °F - 66.2 °F 94% 30.08 in 10.0 mi NE 4.6 mph - N/A   Clear
6:15 AM 69.8 °F - 66.2 °F 88% 30.09 in 10.0 mi NE 4.6 mph - N/A   Clear
6:35 AM 69.8 °F - 66.2 °F 88% 30.09 in 10.0 mi NE 3.5 mph - N/A   Clear
6:53 AM 71.1 °F - 66.9 °F 87% 30.08 in - NE 3.5 mph - N/A   Unknown
6:55 AM 68.0 °F - 66.2 °F 94% 30.10 in 10.0 mi ENE 3.5 mph - N/A   Clear
7:15 AM 68.0 °F - 66.2 °F 94% 30.10 in 10.0 mi ENE 3.5 mph - N/A   Clear
7:35 AM 69.8 °F - 66.2 °F 88% 30.10 in 10.0 mi Calm Calm - N/A   Clear
7:53 AM 72.0 °F - 66.9 °F 84% 30.10 in - ENE 3.5 mph - N/A   Unknown
7:55 AM 69.8 °F - 68.0 °F 94% 30.11 in 10.0 mi Calm Calm - N/A   Clear
8:15 AM 69.8 °F - 68.0 °F 94% 30.12 in 10.0 mi NE 3.5 mph - N/A   Clear
8:35 AM 71.6 °F - 68.0 °F 88% 30.12 in 10.0 mi NE 3.5 mph - N/A   Clear
8:53 AM 75.9 °F - 68.0 °F 76% 30.11 in - NE 5.8 mph - N/A   Unknown
8:55 AM 73.4 °F - 68.0 °F 83% 30.13 in 10.0 mi NE 4.6 mph - N/A   Clear
9:15 AM 75.2 °F - 68.0 °F 78% 30.13 in 10.0 mi ENE 3.5 mph - N/A   Clear
9:35 AM 77.0 °F - 69.8 °F 78% 30.14 in 10.0 mi ENE 5.8 mph - N/A   Clear
9:53 AM 81.0 °F 84.4 °F 70.0 °F 69% 30.13 in - East 8.1 mph - N/A   Unknown
9:55 AM 78.8 °F - 69.8 °F 74% 30.14 in 10.0 mi East 8.1 mph - N/A   Clear
10:15 AM 80.6 °F 83.9 °F 69.8 °F 70% 30.14 in 10.0 mi East 8.1 mph - N/A   Clear
10:35 AM 80.6 °F 83.9 °F 69.8 °F 70% 30.15 in 10.0 mi East 8.1 mph - N/A   Clear
10:53 AM 84.0 °F 89.0 °F 71.1 °F 65% 30.14 in - East 9.2 mph - N/A   Unknown
10:55 AM 82.4 °F 86.3 °F 69.8 °F 66% 30.15 in 10.0 mi ESE 10.4 mph 16.1 mph N/A   Clear
11:15 AM 80.6 °F 83.9 °F 69.8 °F 70% 30.15 in 10.0 mi East 5.8 mph - N/A   Scattered Clouds
11:35 AM 82.4 °F 86.3 °F 69.8 °F 66% 30.15 in 10.0 mi East 6.9 mph - N/A   Mostly Cloudy
11:53 AM 84.0 °F 88.4 °F 70.0 °F 63% 30.14 in - East 4.6 mph - N/A   Unknown
11:55 AM 82.4 °F 85.4 °F 68.0 °F 62% 30.15 in 10.0 mi East 4.6 mph - N/A   Mostly Cloudy
12:15 PM 82.4 °F 86.3 °F 69.8 °F 66% 30.15 in 10.0 mi East 4.6 mph - N/A   Scattered Clouds
12:35 PM 84.2 °F 88.4 °F 69.8 °F 62% 30.14 in 10.0 mi East 9.2 mph - N/A   Scattered Clouds
12:53 PM 86.0 °F 90.7 °F 70.0 °F 59% 30.12 in - ENE 5.8 mph - N/A   Unknown
12:55 PM 82.4 °F 86.3 °F 69.8 °F 66% 30.14 in 10.0 mi ENE 4.6 mph - N/A   Scattered Clouds
1:15 PM 86.0 °F 89.4 °F 68.0 °F 55% 30.13 in 10.0 mi NE 6.9 mph - N/A   Mostly Cloudy
1:35 PM 86.0 °F 89.4 °F 68.0 °F 55% 30.13 in 10.0 mi East 8.1 mph - N/A   Scattered Clouds
1:53 PM 90.0 °F 94.5 °F 69.1 °F 50% 30.11 in - East 8.1 mph - N/A   Unknown
1:55 PM 87.8 °F 90.4 °F 66.2 °F 49% 30.12 in 10.0 mi East 9.2 mph - N/A   Clear
2:15 PM 87.8 °F 90.4 °F 66.2 °F 49% 30.12 in 10.0 mi ENE 9.2 mph - N/A   Scattered Clouds
2:35 PM 87.8 °F 88.5 °F 62.6 °F 43% 30.11 in 10.0 mi East 8.1 mph - N/A   Clear
2:53 PM 90.0 °F 91.7 °F 64.9 °F 43% 30.09 in - East 9.2 mph - N/A   Unknown
2:55 PM 87.8 °F 88.5 °F 62.6 °F 43% 30.10 in 10.0 mi East 8.1 mph - N/A   Scattered Clouds
3:15 PM 87.8 °F 89.4 °F 64.4 °F 46% 30.09 in 10.0 mi NE 5.8 mph - N/A   Scattered Clouds
3:35 PM 89.6 °F 91.1 °F 64.4 °F 43% 30.09 in 10.0 mi ENE 8.1 mph - N/A   Scattered Clouds
3:53 PM 91.0 °F 94.3 °F 66.9 °F 45% 30.06 in - Variable 3.5 mph - N/A   Unknown
3:55 PM 87.8 °F 89.4 °F 64.4 °F 46% 30.08 in 10.0 mi ESE 9.2 mph - N/A   Scattered Clouds
4:15 PM 89.6 °F 90.1 °F 62.6 °F 40% 30.08 in 10.0 mi NE 6.9 mph - N/A   Clear
4:35 PM 89.6 °F 90.1 °F 62.6 °F 40% 30.07 in 10.0 mi ENE 5.8 mph - N/A   Clear
4:53 PM 91.0 °F 93.0 °F 64.9 °F 42% 30.06 in - East 8.1 mph - N/A   Unknown
4:55 PM 89.6 °F 90.1 °F 62.6 °F 40% 30.07 in 10.0 mi East 6.9 mph - N/A   Clear
5:15 PM 89.6 °F 90.1 °F 62.6 °F 40% 30.07 in 10.0 mi East 6.9 mph - N/A   Scattered Clouds
5:35 PM 87.8 °F 88.5 °F 62.6 °F 43% 30.07 in 10.0 mi East 6.9 mph - N/A   Scattered Clouds
5:53 PM 89.1 °F 91.0 °F 64.9 °F 45% 30.05 in - ENE 9.2 mph - N/A   Unknown
5:55 PM 87.8 °F 88.5 °F 62.6 °F 43% 30.07 in 10.0 mi East 8.1 mph - N/A   Scattered Clouds
6:15 PM 87.8 °F 87.6 °F 60.8 °F 40% 30.07 in 10.0 mi East 5.8 mph - N/A   Clear
6:35 PM 87.8 °F 87.6 °F 60.8 °F 40% 30.07 in 10.0 mi East 4.6 mph - N/A   Clear
6:53 PM 88.0 °F 89.3 °F 64.0 °F 45% 30.06 in - ENE 4.6 mph - N/A   Unknown
6:55 PM 86.0 °F 86.1 °F 60.8 °F 43% 30.07 in 10.0 mi ENE 3.5 mph - N/A   Clear
7:15 PM 86.0 °F 86.6 °F 62.6 °F 45% 30.07 in 10.0 mi Calm Calm - N/A   Clear
7:35 PM 82.4 °F 83.4 °F 62.6 °F 51% 30.08 in 10.0 mi Calm Calm - N/A   Clear
7:53 PM 82.9 °F 84.6 °F 64.9 °F 54% 30.07 in - Calm Calm - N/A   Unknown
7:55 PM 80.6 °F 81.8 °F 62.6 °F 54% 30.09 in 10.0 mi Calm Calm - N/A   Clear
8:15 PM 80.6 °F 82.3 °F 64.4 °F 58% 30.09 in 10.0 mi Calm Calm - N/A   Clear
8:35 PM 80.6 °F 82.3 °F 64.4 °F 58% 30.10 in 10.0 mi Calm Calm - N/A   Clear
8:53 PM 82.0 °F 84.1 °F 66.0 °F 58% 30.09 in - East 4.6 mph - N/A   Unknown
8:55 PM 80.6 °F 82.3 °F 64.4 °F 58% 30.10 in 10.0 mi East 4.6 mph - N/A   Mostly Cloudy
9:15 PM 80.6 °F 82.3 °F 64.4 °F 58% 30.11 in 10.0 mi East 5.8 mph - N/A   Scattered Clouds
9:35 PM 78.8 °F - 66.2 °F 65% 30.12 in 10.0 mi East 3.5 mph - N/A   Clear
9:53 PM 80.1 °F 82.3 °F 66.9 °F 64% 30.11 in - Calm Calm - N/A   Unknown
9:55 PM 78.8 °F - 66.2 °F 65% 30.12 in 10.0 mi ENE 3.5 mph - N/A   Clear
10:15 PM 77.0 °F - 66.2 °F 69% 30.13 in 10.0 mi ENE 3.5 mph - N/A   Clear
10:35 PM 77.0 °F - 66.2 °F 69% 30.14 in 10.0 mi ENE 4.6 mph - N/A   Clear
10:53 PM 77.0 °F - 66.9 °F 71% 30.12 in - NE 3.5 mph - N/A   Unknown
10:55 PM 75.2 °F - 66.2 °F 73% 30.14 in 10.0 mi NE 4.6 mph - N/A   Clear
11:15 PM 73.4 °F - 68.0 °F 83% 30.14 in 10.0 mi NE 5.8 mph - N/A   Clear
11:35 PM 73.4 °F - 66.2 °F 78% 30.14 in 10.0 mi Calm Calm - N/A   Clear
11:53 PM 75.0 °F - 66.9 °F 76% 30.13 in - Calm Calm - N/A   Unknown
11:55 PM 73.4 °F - 66.2 °F 78% 30.15 in 10.0 mi Calm Calm - N/A   Clear